Retour au catalogue

FENGYUN 1C DEB

ActifPO
NORAD 32150·DEBRIS·🇨🇳 China

Lancé May 10, 1999 depuis Taiyuan Satellite Launch Center

Loading…

Prochains Passages (prochaines 24 heures)

TLE

FraisSource: Space-Track

Époque: Sep 13, 2026, 08:59 UTC

1 32150U 99025CSU 26256.37439638  .00000434  00000-0  83803-4 0  9997
2 32150  99.1602 313.9524 0168958 313.5471  45.1796 14.61201039 16958

Suivez FENGYUN 1C DEB en temps réel avec AllMySat

Download on the App Store